sat.trackr.live / text

‹ back to catalog

CARTOSAT-2F

NORAD 43111 · 2018-004A

PAYLOAD ACTIVE UNKNOWN

§ Identity

Operator
Country
IND
Launch date
2018-01-12
Launch site
SRILR
Launch vehicle
Mass (kg)
RCS (m²)

Purposes: earth_obs

External: N2YO · Heavens-Above · Gunter

§ Orbital elements

Epoch: 2026-09-20T04:26:54.825792Z

Period
94.79 min
Inclination
97.4689°
Eccentricity
0.0000690
Mean motion
15.19188473 rev/d
Perigee alt
507.8 km
Apogee alt
508.8 km
Semi-major
6,886.4 km
B*
7.8445e-5
RAAN
321.8378°
Arg perigee
355.8105°
Mean anomaly
4.3124°
Rev number
48,175

§ Raw data

CARTOSAT-2F1 43111U 18004A   26263.18535678  .00001582  00000+0  78445-4 0  99922 43111  97.4689 321.8378 0000690 355.8105   4.3124 15.19188473481755

JSON: /api/v1/satellites/43111 · /tle

For live sub-satellite position, see the globe view (requires WebGL).

§ Visibility from observer

Set your observer location to see the next 7 days of passes ≥ 10°. The values pass through the URL so the page stays shareable.

No JS? Fill the form by hand. The geolocation button needs JavaScript.

§ Radio — SatNOGS DB

ModeDescriptionDownlinkUplink
CW Beacon 2.246 GHz
BPSK S-band telemetry (800000) 2.242 GHz

2 transmitters · refreshed weekly from db.satnogs.org